Location: Maccacari
(45.1333°N, 11.1333°E)
Time: 18:12:43
(UTC+00:00)

USA 234 - Pass Details

Date: 24 January 2021
Orbit: 1100 x 1107 km, 123.0° (Epoch: 01 March)

Event Time Altitude Azimuth Distance (km) Brightness Sun altitude
Exits shadow 17:29:28 16° 56° (NE) 2,554 4.6 -13.7°
Maximum altitude 17:33:45 32° 4° (N) 1,810 4.3 -14.4°
Drops below altitude 10° 17:39:22 10° 305° (NW) 2,967 6.1 -15.4°
Sets 17:42:07 0° 296° (WNW) 3,927 7.1 -15.8°
